Flag for USA

Past Weather in Pittsburgh, Pennsylvania, USA — Yesterday and Last 2 Weeks

Now
82 °F

Passing clouds.


Feels Like: 85 °F
Forecast: 92 / 71 °F
Wind: 6 mph from South

Location: Allegheny County Airport

Current Time: Jul 9, 2020 at 10:58:41 am

Latest Report: Jul 9, 2020 at 9:53 am


Visibility: 10 mi

Pressure: 29.98 "Hg

Humidity: 65%

Dew Point: 69 °F

Location of PittsburghLocation

Past Weather in Pittsburgh — Graph

°F

Pittsburgh Temperature Yesterday

Maximum temperature yesterday: 92 °F (at 4:53 pm)
Minimum temperature yesterday: 68 °F (at 4:53 am)
Average temperature yesterday: 79 °F

High & Low Weather Summary for the Past Weeks

 TemperatureHumidityPressure
High94 °F (Jul 6, 4:53 pm)100% (Jun 28, 1:30 am)30.07 "Hg (Jun 28, 1:30 am)
Low59 °F (Jun 25, 5:53 am)28% (Jul 6, 2:53 pm)29.79 "Hg (Jun 28, 6:53 pm)
Average76 °F65%29.94 "Hg
* Reported Jun 24 8:53 am — Jul 9 8:53 am, Pittsburgh. Weather by CustomWeather, © 2020

Note: Actual official high and low records may vary slightly from our data, if they occured in-between our weather recording intervals... More about our weather records

Pittsburgh Weather History for the Previous 24 Hours

Scroll right to see more
 ConditionsComfort  
Time TempWeatherWind HumidityBarometerVisibility
8:53 am
Thu, Jul 9
78 °FSunny.7 mph74%29.98 "Hg9 mi
7:53 am74 °FSunny.3 mph82%29.97 "Hg6 mi
6:53 am73 °FSunny.3 mph81%29.95 "Hg8 mi
5:53 am72 °FPassing clouds.No wind87%29.93 "Hg9 mi
4:53 am73 °FClear.No wind81%29.92 "Hg10 mi
3:53 am73 °FClear.3 mph84%29.91 "Hg9 mi
2:53 am74 °FClear.7 mph79%29.90 "Hg10 mi
1:53 am76 °FClear.7 mph74%29.92 "Hg10 mi
12:53 am76 °FClear.6 mph77%29.93 "Hg10 mi
11:53 pm
Wed, Jul 8
80 °FClear.5 mph64%29.93 "Hg10 mi
10:53 pm80 °FPassing clouds.5 mph64%29.94 "Hg10 mi
9:53 pm81 °FPassing clouds.5 mph60%29.93 "Hg10 mi
8:53 pm84 °FPassing clouds.7 mph55%29.91 "Hg10 mi
7:53 pm88 °FScattered clouds.No wind45%29.90 "Hg10 mi
6:53 pm89 °FSunny.3 mph45%29.90 "Hg10 mi
5:53 pm90 °FMostly cloudy.6 mph42%29.90 "Hg10 mi
4:53 pm92 °FScattered clouds.5 mph41%29.90 "Hg10 mi
3:53 pm90 °FMore clouds than sun.7 mph43%29.93 "Hg10 mi
2:53 pm88 °FSunny.No wind48%29.95 "Hg10 mi
1:53 pm87 °FPassing clouds.3 mph51%29.98 "Hg10 mi
12:53 pm84 °FPassing clouds.5 mph57%30.00 "Hg10 mi
11:53 am80 °FScattered clouds.5 mph67%30.02 "Hg9 mi
10:53 am80 °FScattered clouds.6 mph64%30.02 "Hg10 mi
Weather by CustomWeather, © 2020

See weather overview